Weather History for State College, PA

Change the Weather History Date:

Monday, September 2, 2013

  Actual Average Record
Temperature  
Mean Temperature 76 °F -  
Max Temperature 86 °F 77 °F 98 °F (1953)
Min Temperature 65 °F 57 °F 33 °F (1996)
Cooling Degree Days 10    
Growing Degree Days 26 (Base 50)    
Moisture  
Dew Point 66 °F    
Average Humidity 85    
Maximum Humidity 100    
Minimum Humidity 45    
Precipitation  
Precipitation 0.00 in - - ()
Sea Level Pressure  
Sea Level Pressure 29.81 in    
Wind  
Wind Speed 3 mph (WSW)    
Max Wind Speed 10 mph    
Max Gust Speed 17 mph    
Visibility 8 miles    
Events Rain , Thunderstorm    
Averages and records for this station are not official NWS values.
T = Trace of Precipitation, MM = Missing Value Source: NWS Daily Summary

Daily Weather History Graph

Daily Weather History Graph

Search for Another Location

Airport:

Trip Planner

Search our weather history database for the weather conditions in past years. The results will help you decide how hot, cold, wet, or windy it might be!

Date:

Astronomy

Sep. 02, 2013 Rise Set
Actual Time 6:39 AM EDT 7:41 PM EDT
Civil Twilight 6:11 AM EDT 8:09 PM EDT
Nautical Twilight 5:37 AM EDT 8:43 PM EDT
Astronomical Twilight 5:02 AM EDT 9:17 PM EDT
Moon 3:53 AM EDT (9/2) 5:54 PM EDT (9/2)
Length of Visible Light 13h 58m
Length of Day
13h 02m
Waning Crescent, 8% of the Moon is Illuminated
Sep 2
Waning Crescent
Sep 5
New
Sep 12
First Quarter
Sep 19
Full
Sep 26
Last Quarter

Hourly Weather History & Observations

Time (EDT) Temp. Heat Index Dew Point Humidity Pressure Visibility Wind Dir Wind Speed Gust Speed Precip Events Conditions
12:15 AM 71.4 °F - 69.3 °F 93% 29.83 in 7.0 mi South 4.6 mph - N/A   Mostly Cloudy
12:35 AM 71.1 °F - 69.1 °F 93% 29.83 in 7.0 mi South 4.6 mph - N/A Thunderstorm Scattered Clouds
12:55 AM 70.7 °F - 68.7 °F 93% 29.83 in 7.0 mi SW 3.5 mph - N/A   Clear
1:15 AM 69.8 °F - 68.0 °F 94% 29.83 in 5.0 mi Calm Calm - N/A   Clear
1:35 AM 68.9 °F - 67.6 °F 96% 29.82 in 5.0 mi South 3.5 mph - N/A   Clear
1:55 AM 68.9 °F - 67.8 °F 96% 29.82 in 5.0 mi Calm Calm - N/A   Clear
2:15 AM 69.8 °F - 68.4 °F 95% 29.82 in 7.0 mi WSW 3.5 mph - N/A   Clear
2:35 AM 69.1 °F - 67.3 °F 94% 29.82 in 7.0 mi WSW 3.5 mph - N/A   Mostly Cloudy
2:55 AM 70.0 °F - 67.8 °F 93% 29.81 in 10.0 mi West 3.5 mph - N/A   Scattered Clouds
3:15 AM 68.2 °F - 66.7 °F 95% 29.81 in 5.0 mi Calm Calm - N/A   Clear
3:35 AM 68.0 °F - 67.1 °F 97% 29.81 in 4.0 mi Calm Calm - N/A   Clear
3:55 AM 67.6 °F - 66.7 °F 97% 29.81 in 4.0 mi Calm Calm - N/A   Clear
4:15 AM 68.0 °F - 67.1 °F 97% 29.81 in 4.0 mi Calm Calm - N/A   Clear
4:35 AM 68.2 °F - 67.3 °F 97% 29.81 in 7.0 mi SW 3.5 mph - N/A   Scattered Clouds
4:55 AM 67.5 °F - 66.6 °F 97% 29.82 in 5.0 mi Calm Calm - N/A   Mostly Cloudy
5:15 AM 68.0 °F - 66.6 °F 95% 29.82 in 7.0 mi SW 3.5 mph - N/A   Scattered Clouds
5:35 AM 67.8 °F - 66.6 °F 96% 29.82 in 7.0 mi Calm Calm - N/A   Scattered Clouds
5:55 AM 68.0 °F - 66.2 °F 94% 29.82 in 10.0 mi Calm Calm - N/A   Scattered Clouds
6:53 AM 66.2 °F - 66.2 °F 100% 29.82 in 10.0 mi Calm Calm - N/A   Scattered Clouds
7:53 AM 69.8 °F - 66.2 °F 88% 29.83 in 10.0 mi West 4.6 mph - N/A   Scattered Clouds
8:53 AM 71.6 °F - 68.0 °F 88% 29.83 in 10.0 mi SW 4.6 mph - N/A   Partly Cloudy
9:53 AM 75.2 °F - 68.0 °F 78% 29.83 in 10.0 mi SSW 3.5 mph - N/A   Mostly Cloudy
10:06 AM 75.2 °F - 68.0 °F 78% 29.83 in 10.0 mi Calm Calm - N/A   Mostly Cloudy
10:53 AM 77.0 °F - 68.0 °F 74% 29.83 in 10.0 mi West 3.5 mph - N/A   Overcast
11:53 AM 78.8 °F - 66.2 °F 65% 29.83 in 10.0 mi West 5.8 mph - N/A   Mostly Cloudy
12:53 PM 84.2 °F 86.6 °F 66.2 °F 55% 29.81 in 7.0 mi West 8.1 mph 17.3 mph N/A   Mostly Cloudy
2:53 PM 86.0 °F 86.6 °F 62.6 °F 45% 29.78 in 10.0 mi WSW 10.4 mph - N/A   Mostly Cloudy
3:53 PM 86.0 °F 86.6 °F 62.6 °F 45% 29.75 in 10.0 mi West 10.4 mph - N/A   Mostly Cloudy
4:53 PM 86.0 °F 86.6 °F 62.6 °F 45% 29.76 in 10.0 mi West 5.8 mph - N/A   Mostly Cloudy
5:53 PM 84.2 °F 85.6 °F 64.4 °F 51% 29.76 in 10.0 mi WSW 9.2 mph - N/A   Mostly Cloudy
6:53 PM 77.0 °F - 60.8 °F 57% 29.75 in 10.0 mi Calm Calm - N/A Thunderstorm Mostly Cloudy
7:10 PM 75.2 °F - 60.8 °F 61% 29.78 in 7.0 mi Calm Calm - N/A Rain , Thunderstorm Thunderstorms and Rain
7:30 PM 73.4 °F - 66.2 °F 78% 29.80 in 2.0 mi WSW 9.2 mph - N/A Rain , Thunderstorm Heavy Thunderstorms and Rain
7:53 PM 69.8 °F - - N/A% 29.77 in 6.0 mi South 6.9 mph - N/A Rain , Thunderstorm Thunderstorms and Rain
8:25 PM 68.0 °F - 62.6 °F 83% 29.77 in 10.0 mi WNW 3.5 mph - N/A   Overcast
8:53 PM 68.0 °F - 64.4 °F 88% 29.79 in 10.0 mi Calm Calm - N/A   Scattered Clouds
9:15 PM 66.9 °F - 63.9 °F 90% 29.79 in 10.0 mi WNW 4.6 mph - N/A   Scattered Clouds
9:35 PM 66.2 °F - 63.9 °F 92% 29.81 in 10.0 mi West 3.5 mph - N/A   Scattered Clouds
9:55 PM 66.2 °F - 64.2 °F 93% 29.81 in 7.0 mi SW 4.6 mph - N/A Thunderstorm Scattered Clouds
10:15 PM 66.4 °F - 64.2 °F 93% 29.83 in 10.0 mi SW 6.9 mph - N/A Thunderstorm Mostly Cloudy
10:35 PM 66.2 °F - 63.7 °F 92% 29.81 in 10.0 mi Calm Calm - N/A   Scattered Clouds
10:55 PM 65.5 °F - 63.9 °F 94% 29.81 in 10.0 mi Calm Calm - N/A   Scattered Clouds
11:15 PM 65.3 °F - 64.0 °F 96% 29.82 in 7.0 mi SSW 5.8 mph - N/A   Clear
11:35 PM 65.5 °F - 63.9 °F 94% 29.82 in 10.0 mi Calm Calm - N/A   Clear
11:55 PM 65.3 °F - 63.7 °F 94% 29.82 in 7.0 mi Calm Calm - N/A   Scattered Clouds